Flag for Pakistan Weather past 2 weeks in Rawalpindi, Pakistan

Now
52 °F

Rain. Broken clouds.


Feels Like: 48 °F
Forecast: 41 / 62 °F
Wind: 12 mph from Northeast

Location: Islamabad Airport

Current Time: Mar 5, 2015 at 8:43:59 AM

Latest Report: Mar 5, 2015 at 8:00 AM


Visibility: 2 mi

Pressure: 30.07 "Hg

Humidity: 94%

Dew point: 50 °F

Location of RawalpindiLocation

Historic Weather in Rawalpindi — Graph

°F

Rawalpindi temperature yesterday

Maximum temperature yesterday: 66 °F (at 2:00 PM)
Minimum temperature yesterday: 45 °F (at 7:00 AM)
Average temperature yesterday: 56 °F

Past Weeks' High & Low Weather Summary

 TemperatureHumidityPressure
High77 °F (Feb 22, 2:00 PM)100% (Feb 22, 7:00 AM)30.15 "Hg (Feb 22, 7:00 AM)
Low45 °F (Mar 4, 7:00 AM)35% (Feb 27, 4:00 PM)29.68 "Hg (Feb 25, 5:00 AM)
Average58 °F76%29.98 "Hg
* Reported Feb 18 8:00 AM — Mar 5 7:00 AM, Rawalpindi, Weather by CustomWeather, © 2015

Note: Actual official high and low records may vary slightly from our data, if they occured in-between our weather recording intervals... More about our weather records

Advertising

Rawalpindi weather history for previous 24 hours

 ConditionsComfort  
Time TempWeatherWind HumidityBarometerVisibility
7:00 AM
Thu, Mar 5
52 °FLight rain. Broken clouds.14 mph94%30.04 "Hg2 mi
6:00 AM54 °FFog.18 mph82%30.01 "Hg2 mi
5:00 AM54 °FLight rain. Partly cloudy.7 mph82%30.01 "Hg2 mi
4:00 AM55 °FPartly cloudy.7 mph77%30.01 "Hg4 mi
3:00 AM55 °FPassing clouds.7 mph77%30.01 "Hg4 mi
2:00 AM55 °FPartly cloudy.9 mph77%30.01 "Hg4 mi
1:00 AM55 °FPartly cloudy.9 mph77%30.04 "Hg4 mi
12:00 AM55 °FPassing clouds.No wind77%30.04 "Hg4 mi
11:00 PM
Wed, Mar 4
55 °FPassing clouds.7 mph77%30.01 "Hg4 mi
10:00 PM55 °FPassing clouds.7 mph77%30.01 "Hg4 mi
9:00 PM55 °FPassing clouds.7 mph77%30.01 "Hg4 mi
8:00 PM59 °FPassing clouds.7 mph68%30.01 "Hg4 mi
7:00 PM63 °FPassing clouds.7 mph56%29.98 "Hg4 mi
6:00 PM63 °FBroken clouds.12 mph56%29.98 "Hg4 mi
5:00 PM64 °FScattered clouds.14 mph56%29.95 "Hg4 mi
4:00 PM66 °FScattered clouds.7 mph56%29.95 "Hg4 mi
3:00 PM66 °FScattered clouds.7 mph52%29.95 "Hg4 mi
2:00 PM66 °FPassing clouds.7 mph52%29.98 "Hg4 mi
1:00 PM64 °FScattered clouds.7 mph56%30.01 "Hg4 mi
12:00 PM63 °FScattered clouds.7 mph59%30.01 "Hg4 mi
11:00 AM59 °FScattered clouds.7 mph72%30.04 "Hg4 mi
10:00 AM55 °FHaze.7 mph77%30.04 "Hg2 mi
9:00 AM52 °FFog.7 mph82%30.04 "Hg2 mi
Weather by CustomWeather, © 2015

See weather overviewHow to use our weather pages